Chicago, Illinois, United States (60601)
Lat: 41.85N, Lon: 87.65W
Wx Zone: ILZ014
Local Info
Past Weather Observations for Sunday, December 14, 2014

NOTE: This archive is for the closest National Weather Service station to Chicago. Information may differ from the station used for current weather conditions.

Click here for Long-term Archive

Time Weather Temperature Dewpoint Humidity Pressure Winds Precip Visibility
23:53
Overcast
Fog And Mist
46°F / 8°C 46°F / 8°C 100% 30.01 in
(1016 mb)
S 10.4 mph
(S 17 kph)
- 5SM
22:53
Overcast
Fog And Mist
48°F / 9°C 46°F / 8°C 94% 30.04 in
(1017 mb)
S 11.5 mph
(S 19 kph)
0.00 in
(0.00 mm)
5SM
22:44
Overcast
Fog And Mist
48°F / 9°C 46°F / 8°C 94% 30.04 in
(1017 mb)
S 11.5 mph
(S 19 kph)
0.00 in
(0.00 mm)
5SM
21:53
Overcast
Drizzle
48°F / 9°C 46°F / 8°C 94% 30.04 in
(1017 mb)
S 10.4 mph
(S 17 kph)
0.00 in
(0.00 mm)
2 1/2SM
21:16
Overcast
Drizzle
48°F / 9°C 46°F / 8°C 94% 30.04 in
(1017 mb)
S 12.7 mph
(S 20 kph)
0.00 in
(0.00 mm)
2SM
20:53
Overcast
Drizzle
48°F / 9°C 46°F / 8°C 94% 30.04 in
(1017 mb)
S 11.5 mph
(S 19 kph)
0.00 in
(0.00 mm)
1 3/4SM
19:53
Overcast
Drizzle
48°F / 9°C 46°F / 8°C 94% 30.04 in
(1017 mb)
SSE 11.5 mph
(SSE 19 kph)
0.00 in
(0.00 mm)
2 1/2SM
19:30
Overcast
Drizzle
48°F / 9°C 46°F / 8°C 94% 30.04 in
(1017 mb)
SSE 11.5 mph
(SSE 19 kph)
0.00 in
(0.00 mm)
2 1/2SM
18:53
Overcast
Drizzle
48°F / 9°C 46°F / 8°C 94% 30.04 in
(1017 mb)
SSE 10.4 mph
(SSE 17 kph)
0.00 in
(0.00 mm)
4SM
18:30
Overcast
Drizzle
48°F / 9°C 46°F / 8°C 94% 30.04 in
(1017 mb)
S 10.4 mph
(S 17 kph)
0.00 in
(0.00 mm)
4SM
17:53
Overcast
Fog And Mist
50°F / 10°C 46°F / 8°C 88% 30.04 in
(1017 mb)
S 10.4 mph
(S 17 kph)
- 4SM
16:53
Overcast
Fog And Mist
50°F / 10°C 46°F / 8°C 88% 30.04 in
(1017 mb)
S 6.9 mph
(S 11 kph)
- 3SM
15:53
Overcast
Fog And Mist
50°F / 10°C 46°F / 8°C 88% 30.04 in
(1017 mb)
SSE 9.2 mph
(SSE 15 kph)
- 5SM
14:53
Overcast
52°F / 11°C 46°F / 8°C 82% 30.04 in
(1017 mb)
SSE 11.5 mph
(SSE 19 kph)
- 7SM
14:18
Overcast
Fog And Mist
52°F / 11°C 46°F / 8°C 82% 30.04 in
(1017 mb)
S 11.5 mph
(S 19 kph)
- 6SM
13:53
Overcast
52°F / 11°C 46°F / 8°C 82% 30.04 in
(1017 mb)
SSE 15 mph
(SSE 24 kph)
- 7SM
12:53
Overcast
54°F / 12°C 46°F / 8°C 77% 30.06 in
(1018 mb)
SW 10.4 mph
(SW 17 kph)
- 9SM
12:18
Overcast
54°F / 12°C 46°F / 8°C 77% 30.06 in
(1018 mb)
SW 10.4 mph
(SW 17 kph)
- 10SM
11:53
Mostly Cloudy
54°F / 12°C 46°F / 8°C 77% 30.06 in
(1018 mb)
SW 13.8 mph
(SW 22 kph)
- 10SM
10:53
Mostly Cloudy
52°F / 11°C 46°F / 8°C 82% 30.09 in
(1019 mb)
SW 10.4 mph
(SW 17 kph)
- 10SM
10:32
Mostly Cloudy
52°F / 11°C 46°F / 8°C 82% 30.09 in
(1019 mb)
S 10.4 mph
(S 17 kph)
- 9SM
09:53
Overcast
50°F / 10°C 46°F / 8°C 88% 30.09 in
(1019 mb)
SW 8.1 mph
(SW 13 kph)
- 7SM
09:26
Overcast
48°F / 9°C 45°F / 7°C 87% 30.09 in
(1019 mb)
SW 9.2 mph
(SW 15 kph)
- 7SM
08:53
Overcast
Fog And Mist
48°F / 9°C 45°F / 7°C 87% 30.09 in
(1019 mb)
SW 11.5 mph
(SW 19 kph)
- 5SM
07:53
Overcast
Fog And Mist
46°F / 8°C 45°F / 7°C 93% 30.09 in
(1019 mb)
SSE 8.1 mph
(SSE 13 kph)
- 5SM
06:53
Overcast
Fog And Mist
46°F / 8°C 45°F / 7°C 93% 30.09 in
(1019 mb)
SW 8.1 mph
(SW 13 kph)
- 6SM
05:53
Overcast
Fog And Mist
48°F / 9°C 45°F / 7°C 87% 30.09 in
(1019 mb)
SW 8.1 mph
(SW 13 kph)
- 6SM
05:17
Overcast
Hazy
48°F / 9°C 45°F / 7°C 87% 30.12 in
(1020 mb)
SW 8.1 mph
(SW 13 kph)
- 6SM
04:53
Overcast
48°F / 9°C 45°F / 7°C 87% 30.12 in
(1020 mb)
SW 8.1 mph
(SW 13 kph)
- 7SM
03:53
Overcast
48°F / 9°C 45°F / 7°C 87% 30.09 in
(1019 mb)
SW 6.9 mph
(SW 11 kph)
- 8SM
02:53
Overcast
48°F / 9°C 45°F / 7°C 87% 30.09 in
(1019 mb)
SW 6.9 mph
(SW 11 kph)
- 10SM
01:53
Overcast
48°F / 9°C 45°F / 7°C 87% 30.09 in
(1019 mb)
S 4.6 mph
(S 7 kph)
- 9SM
00:53
Overcast
48°F / 9°C 45°F / 7°C 87% 30.09 in
(1019 mb)
SSE 4.6 mph
(SSE 7 kph)
- 7SM
Time Weather Temperature Dewpoint Humidity Pressure Winds Precip Visibility


Weather for websites

WeatherForYou.com, LLC is not responsible for any damages or problems caused by this service. Current weather conditions are obtained from the closest station including government and personal stations which may have varying degrees of accuracy. Weather forecasts are derived from the NOAA NDFD. Like all things, this site belongs to Jesus Christ... He just trusts me to maintain it. If you have any questions or comments email webmaster@weatherforyou.com

Copyright © 2014, WeatherForYou.com LLC. All rights reserved.